Tracking 30415 objects as of 15-May-2025
HD Live streaming from Space Station
objects crossing your sky now

HAMMER

Track HAMMER now!
10-day predictions


NORAD ID: 59148
Int'l Code: 2024-043BC
Perigee: 463.3 km
Apogee: 476.6 km
Inclination: 97.5 °
Period: 93.9 minutes
Semi major axis: 6840 km
RCS: Unknown
Launch date: March 4, 2024
Source: Spain (SPN)
Launch site: AIR FORCE WESTERN TEST RANGE (AFWTR)
Your satellite tracking list
Your tracking list is empty




NASA's NSSDC Master Catalog

Two Line Element Set (TLE):
1 59148U 24043BC  25134.82584355  .00011658  00000-0  35229-3 0  9990
2 59148  97.5060 266.4259 0009709 162.2932 197.8651 15.34350411 66444
Source of the keplerian elements: AFSPC